| time (UTC) | temp F | wind direction | speed MPH | gust MPH | rain 1hr in | rain 24hr in | rain mn in | humidity % | barometer mb |
| 20260902020856 | 69 | 120 | 1.0 | 4.0 | 0.00 | 0.00 | 0.00 | 60 | 1014.4 |
| 20260902015842 | 69 | 129 | 2.0 | 5.0 | 0.00 | 0.00 | 0.00 | 61 | 1014.3 |
| 20260902014850 | 69 | 144 | 2.0 | 5.0 | 0.00 | 0.00 | 0.00 | 58 | 1014.2 |
| 20260902013822 | 70 | 119 | 2.0 | 4.0 | 0.00 | 0.00 | 0.00 | 60 | 1014.3 |
| 20260902011643 | 72 | 109 | 1.0 | 2.0 | 0.00 | 0.00 | 0.00 | 54 | 1014.3 |
| 20260902005428 | 72 | 103 | 1.0 | 2.0 | 0.00 | 0.00 | 0.00 | 52 | 1014.5 |
| 20260902004432 | 73 | 96 | 1.0 | 2.0 | 0.00 | 0.00 | 0.00 | 52 | 1014.5 |
| 20260902003422 | 73 | 80 | 0.0 | 2.0 | 0.00 | 0.00 | 0.00 | 49 | 1014.6 |
| 20260902002430 | 74 | 71 | 0.0 | 0.0 | 0.00 | 0.00 | 0.00 | 48 | 1014.6 |
| 20260902001443 | 74 | 71 | 0.0 | 0.0 | 0.00 | 0.00 | 0.00 | 46 | 1014.6 |
| 20260902000504 | 75 | 71 | 0.0 | 0.0 | 0.00 | 0.00 | 0.00 | 46 | 1014.5 |
| 20260901235429 | 76 | 71 | 0.0 | 0.0 | 0.00 | 0.00 | 0.00 | 44 | 1014.5 |
| 20260901234419 | 76 | 71 | 0.0 | 0.0 | 0.00 | 0.00 | 0.00 | 44 | 1014.6 |
| 20260901233436 | 77 | 71 | 0.0 | 0.0 | 0.00 | 0.00 | 0.00 | 44 | 1014.7 |
| 20260901232413 | 76 | 306 | 0.0 | 0.0 | 0.00 | 0.00 | 0.00 | 40 | 1014.7 |
| 20260901231428 | 77 | 306 | 0.0 | 0.0 | 0.00 | 0.00 | 0.00 | 41 | 1014.9 |
| 20260901230403 | 77 | 306 | 0.0 | 0.0 | 0.00 | 0.00 | 0.00 | 40 | 1014.9 |
| 20260901225349 | 77 | 306 | 0.0 | 0.0 | 0.00 | 0.00 | 0.00 | 41 | 1014.9 |
| 20260901224408 | 77 | 306 | 2.0 | 4.0 | 0.00 | 0.00 | 0.00 | 38 | 1015.0 |
| 20260901223348 | 77 | 284 | 2.0 | 5.0 | 0.00 | 0.00 | 0.00 | 35 | 1014.9 |
| 20260901222400 | 78 | 311 | 2.0 | 4.0 | 0.00 | 0.00 | 0.00 | 35 | 1015.0 |
| 20260901221326 | 79 | 296 | 0.0 | 2.0 | 0.00 | 0.00 | 0.00 | 35 | 1015.0 |
| 20260901215226 | 78 | 288 | 0.0 | 4.0 | 0.00 | 0.00 | 0.00 | 42 | 1015.3 |
| 20260901214250 | 78 | 351 | 0.0 | 6.0 | 0.00 | 0.00 | 0.00 | 42 | 1015.3 |
| 20260901210951 | 78 | 147 | 0.0 | 5.0 | 0.00 | 0.00 | 0.00 | 42 | 1015.4 |
| 20260901205922 | 78 | 155 | 1.0 | 5.0 | 0.00 | 0.00 | 0.00 | 43 | 1015.5 |
| 20260901204922 | 77 | 302 | 0.0 | 7.0 | 0.00 | 0.00 | 0.00 | 44 | 1015.5 |
| 20260901203921 | 76 | 5 | 3.0 | 7.0 | 0.00 | 0.00 | 0.00 | 43 | 1015.6 |
| 20260901201745 | 77 | 310 | 1.0 | 6.0 | 0.00 | 0.00 | 0.00 | 42 | 1015.6 |
| 20260901200752 | 76 | 252 | 2.0 | 7.0 | 0.00 | 0.00 | 0.00 | 45 | 1015.6 |
| 20260901195751 | 76 | 331 | 2.0 | 7.0 | 0.00 | 0.00 | 0.00 | 45 | 1015.7 |
| 20260901194751 | 75 | 245 | 2.0 | 10.0 | 0.00 | 0.00 | 0.00 | 46 | 1015.8 |
| 20260901193809 | 75 | 275 | 5.0 | 10.0 | 0.00 | 0.00 | 0.00 | 45 | 1015.9 |
| 20260901192749 | 75 | 265 | 4.0 | 9.0 | 0.00 | 0.00 | 0.00 | 44 | 1015.9 |
| 20260901191748 | 76 | 254 | 2.0 | 7.0 | 0.00 | 0.00 | 0.00 | 47 | 1015.9 |
| 20260901190740 | 75 | 216 | 2.0 | 9.0 | 0.00 | 0.00 | 0.00 | 49 | 1016.1 |
| 20260901185731 | 74 | 266 | 3.0 | 9.0 | 0.00 | 0.00 | 0.00 | 52 | 1016.3 |
| 20260901184746 | 73 | 302 | 2.0 | 6.0 | 0.00 | 0.00 | 0.00 | 50 | 1016.4 |
| 20260901183731 | 73 | 239 | 2.0 | 6.0 | 0.00 | 0.00 | 0.00 | 53 | 1016.5 |
| 20260901182740 | 72 | 240 | 2.0 | 8.0 | 0.00 | 0.00 | 0.00 | 55 | 1016.5 |
| 20260901181755 | 72 | 260 | 3.0 | 8.0 | 0.00 | 0.00 | 0.00 | 54 | 1016.6 |
| 20260901180745 | 71 | 273 | 3.0 | 8.0 | 0.00 | 0.00 | 0.00 | 54 | 1016.6 |
| 20260901175719 | 71 | 312 | 4.0 | 8.0 | 0.00 | 0.00 | 0.00 | 53 | 1016.7 |
| 20260901174703 | 71 | 300 | 6.0 | 9.0 | 0.00 | 0.00 | 0.00 | 56 | 1016.8 |
| 20260901173703 | 71 | 243 | 5.0 | 9.0 | 0.00 | 0.00 | 0.00 | 56 | 1016.8 |
| 20260901172726 | 71 | 273 | 4.0 | 9.0 | 0.00 | 0.00 | 0.00 | 57 | 1016.9 |
| 20260901171744 | 71 | 297 | 3.0 | 6.0 | 0.00 | 0.00 | 0.00 | 59 | 1016.9 |
| 20260901170748 | 70 | 280 | 2.0 | 6.0 | 0.00 | 0.00 | 0.00 | 60 | 1017.0 |
| 20260901165725 | 70 | 311 | 3.0 | 6.0 | 0.00 | 0.00 | 0.00 | 60 | 1017.0 |
| 20260901164711 | 70 | 266 | 3.0 | 6.0 | 0.00 | 0.00 | 0.00 | 61 | 1017.0 |
| 20260901163710 | 70 | 304 | 4.0 | 8.0 | 0.00 | 0.00 | 0.00 | 62 | 1017.0 |
| 20260901162643 | 70 | 319 | 2.0 | 8.0 | 0.00 | 0.00 | 0.00 | 64 | 1016.9 |
| 20260901161705 | 68 | 300 | 3.0 | 6.0 | 0.00 | 0.01 | 0.00 | 67 | 1016.9 |
| 20260901160706 | 68 | 296 | 3.0 | 6.0 | 0.00 | 0.01 | 0.00 | 68 | 1017.0 |
| 20260901154540 | 65 | 306 | 2.0 | 5.0 | 0.00 | 0.01 | 0.00 | 74 | 1016.8 |
| 20260901153510 | 64 | 271 | 2.0 | 4.0 | 0.00 | 0.02 | 0.00 | 76 | 1017.0 |
| 20260901152443 | 63 | 269 | 3.0 | 5.0 | 0.00 | 0.02 | 0.00 | 77 | 1017.0 |
| 20260901151440 | 63 | 263 | 3.0 | 5.0 | 0.00 | 0.03 | 0.00 | 78 | 1017.0 |
| 20260901150425 | 62 | 265 | 2.0 | 5.0 | 0.00 | 0.04 | 0.00 | 79 | 1017.0 |
| 20260901145435 | 61 | 247 | 2.0 | 3.0 | 0.00 | 0.06 | 0.00 | 80 | 1017.0 |
| 20260901144455 | 61 | 249 | 2.0 | 6.0 | 0.00 | 0.08 | 0.00 | 80 | 1017.1 |
| 20260901143505 | 60 | 248 | 2.0 | 6.0 | 0.00 | 0.10 | 0.00 | 80 | 1017.2 |
| 20260901142503 | 59 | 260 | 2.0 | 4.0 | 0.00 | 0.14 | 0.00 | 82 | 1017.2 |
| 20260901141502 | 58 | 277 | 2.0 | 4.0 | 0.00 | 0.16 | 0.00 | 84 | 1017.0 |
| 20260901140439 | 57 | 271 | 2.0 | 4.0 | 0.00 | 0.18 | 0.00 | 85 | 1017.1 |
| 20260901135434 | 56 | 257 | 1.0 | 4.0 | 0.00 | 0.18 | 0.00 | 86 | 1017.1 |
| 20260901134404 | 55 | 265 | 2.0 | 4.0 | 0.00 | 0.20 | 0.00 | 87 | 1017.1 |
| 20260901133411 | 54 | 239 | 2.0 | 3.0 | 0.00 | 0.20 | 0.00 | 89 | 1017.1 |
| 20260901132346 | 52 | 266 | 2.0 | 4.0 | 0.00 | 0.20 | 0.00 | 90 | 1017.0 |
| 20260901131321 | 51 | 264 | 2.0 | 4.0 | 0.00 | 0.20 | 0.00 | 91 | 1017.0 |
| 20260901125150 | 50 | 241 | 2.0 | 3.0 | 0.00 | 0.20 | 0.00 | 92 | 1016.8 |
| 20260901123005 | 49 | 233 | 3.0 | 5.0 | 0.00 | 0.20 | 0.00 | 91 | 1016.6 |
| 20260901120833 | 50 | 279 | 1.0 | 2.0 | 0.00 | 0.20 | 0.00 | 91 | 1016.1 |
| 20260901112426 | 50 | 254 | 2.0 | 4.0 | 0.00 | 0.20 | 0.00 | 90 | 1016.0 |
| 20260901111423 | 50 | 254 | 1.0 | 3.0 | 0.00 | 0.20 | 0.00 | 90 | 1016.0 |
| 20260901110412 | 51 | 248 | 2.0 | 4.0 | 0.00 | 0.20 | 0.00 | 90 | 1015.9 |
| 20260901105433 | 51 | 246 | 2.0 | 4.0 | 0.00 | 0.20 | 0.00 | 90 | 1015.8 |
| 20260901104358 | 52 | 254 | 2.0 | 8.0 | 0.00 | 0.20 | 0.00 | 89 | 1015.7 |
| 20260901103407 | 52 | 246 | 3.0 | 8.0 | 0.00 | 0.20 | 0.00 | 88 | 1015.6 |
| 20260901102359 | 52 | 243 | 5.0 | 8.0 | 0.00 | 0.20 | 0.00 | 90 | 1015.8 |
| 20260901101400 | 51 | 238 | 5.0 | 8.0 | 0.00 | 0.20 | 0.00 | 90 | 1015.7 |
| 20260901100330 | 52 | 232 | 2.0 | 5.0 | 0.00 | 0.20 | 0.00 | 90 | 1015.5 |
| 20260901095339 | 52 | 246 | 2.0 | 4.0 | 0.00 | 0.20 | 0.00 | 89 | 1015.3 |
| 20260901094331 | 52 | 252 | 2.0 | 7.0 | 0.00 | 0.20 | 0.00 | 88 | 1015.3 |
| 20260901093332 | 53 | 257 | 5.0 | 9.0 | 0.00 | 0.20 | 0.00 | 88 | 1015.3 |
| 20260901092324 | 53 | 240 | 5.0 | 9.0 | 0.00 | 0.20 | 0.00 | 88 | 1015.2 |
| 20260901091344 | 53 | 234 | 5.0 | 9.0 | 0.00 | 0.20 | 0.00 | 88 | 1015.1 |
| 20260901090339 | 53 | 226 | 5.0 | 10.0 | 0.00 | 0.20 | 0.00 | 88 | 1015.0 |
| 20260901085306 | 54 | 234 | 6.0 | 10.0 | 0.00 | 0.20 | 0.00 | 88 | 1014.9 |
| 20260901083156 | 55 | 252 | 5.0 | 8.0 | 0.00 | 0.20 | 0.00 | 87 | 1014.5 |
| 20260901082126 | 54 | 267 | 4.0 | 6.0 | 0.00 | 0.20 | 0.00 | 89 | 1014.4 |
| 20260901081120 | 53 | 257 | 3.0 | 6.0 | 0.00 | 0.20 | 0.00 | 89 | 1014.5 |
| 20260901080142 | 54 | 259 | 3.0 | 5.0 | 0.00 | 0.20 | 0.00 | 88 | 1014.3 |
| 20260901074012 | 55 | 269 | 2.0 | 5.0 | 0.00 | 0.20 | 0.00 | 87 | 1014.2 |
| 20260901073031 | 55 | 262 | 2.0 | 4.0 | 0.00 | 0.20 | 0.00 | 87 | 1014.2 |
| 20260901072016 | 55 | 261 | 3.0 | 5.0 | 0.00 | 0.20 | 0.00 | 87 | 1014.3 |
| 20260901065903 | 55 | 254 | 3.0 | 6.0 | 0.00 | 0.20 | 0.00 | 88 | 1014.3 |
| 20260901063706 | 56 | 265 | 3.0 | 6.0 | 0.00 | 0.20 | 0.00 | 87 | 1014.1 |
| 20260901062632 | 56 | 259 | 5.0 | 8.0 | 0.00 | 0.20 | 0.00 | 86 | 1014.2 |
| 20260901061618 | 56 | 242 | 5.0 | 8.0 | 0.00 | 0.20 | 0.00 | 87 | 1014.3 |
| 20260901060604 | 57 | 258 | 4.0 | 11.0 | 0.00 | 0.20 | 0.00 | 86 | 1014.2 |
| 20260901055608 | 57 | 236 | 6.0 | 11.0 | 0.00 | 0.20 | 0.20 | 86 | 1014.3 |
| 20260901054610 | 57 | 241 | 7.0 | 12.0 | 0.00 | 0.20 | 0.20 | 86 | 1014.4 |
| 20260901052535 | 58 | 230 | 6.0 | 10.0 | 0.00 | 0.20 | 0.20 | 86 | 1014.3 |
| 20260901050357 | 57 | 241 | 4.0 | 7.0 | 0.00 | 0.20 | 0.20 | 87 | 1014.1 |
| 20260901045348 | 57 | 247 | 4.0 | 7.0 | 0.00 | 0.20 | 0.20 | 87 | 1013.9 |
| 20260901044344 | 58 | 254 | 4.0 | 7.0 | 0.00 | 0.20 | 0.20 | 87 | 1014.0 |
| 20260901043401 | 58 | 233 | 4.0 | 9.0 | 0.00 | 0.20 | 0.20 | 86 | 1013.9 |
| 20260901042356 | 59 | 242 | 5.0 | 9.0 | 0.00 | 0.20 | 0.20 | 85 | 1013.8 |
| 20260901041353 | 59 | 230 | 5.0 | 9.0 | 0.00 | 0.20 | 0.20 | 84 | 1013.8 |
| 20260901035240 | 60 | 240 | 4.0 | 8.0 | 0.00 | 0.20 | 0.20 | 84 | 1013.4 |
| 20260901034212 | 60 | 256 | 5.0 | 10.0 | 0.00 | 0.20 | 0.20 | 83 | 1013.3 |
| 20260901033200 | 61 | 259 | 6.0 | 10.0 | 0.00 | 0.20 | 0.20 | 83 | 1013.1 |
| 20260901032158 | 60 | 261 | 6.0 | 9.0 | 0.00 | 0.20 | 0.20 | 83 | 1013.0 |
| 20260901031202 | 60 | 238 | 4.0 | 7.0 | 0.00 | 0.20 | 0.20 | 84 | 1012.7 |
| 20260901030220 | 60 | 249 | 4.0 | 6.0 | 0.00 | 0.20 | 0.20 | 85 | 1012.6 |
| 20260901025237 | 60 | 254 | 3.0 | 6.0 | 0.00 | 0.20 | 0.20 | 83 | 1012.4 |
| 20260901024219 | 61 | 258 | 4.0 | 6.0 | 0.00 | 0.20 | 0.20 | 83 | 1012.3 |
| 20260901023231 | 62 | 265 | 3.0 | 7.0 | 0.00 | 0.20 | 0.20 | 81 | 1012.1 |